TimeEST,TemperatureF,Dew PointF,Humidity,Sea Level PressureIn,VisibilityMPH,Wind Direction,Wind SpeedMPH,Gust SpeedMPH,PrecipitationIn,Events,Conditions,WindDirDegrees,DateUTC
12:51 AM,57.9,54.0,87,29.93,9.0,WSW,9.2,-,0.00,,Overcast,250,2013-01-14 05:51:00
1:11 AM,46.4,44.6,93,29.94,10.0,NW,27.6,38.0,N/A,Rain,Light Rain,310,2013-01-14 06:11:00
1:25 AM,44.6,41.0,87,29.96,8.0,WNW,18.4,29.9,0.01,Rain,Light Rain,300,2013-01-14 06:25:00
1:51 AM,43.0,39.9,89,30.03,4.0,NW,17.3,23.0,0.01,Rain,Light Rain,310,2013-01-14 06:51:00
2:10 AM,41.0,37.4,87,30.03,4.0,NW,18.4,-,0.00,,Light Drizzle,310,2013-01-14 07:10:00
2:51 AM,39.9,37.9,93,30.09,6.0,WNW,10.4,-,0.00,Rain,Light Rain,300,2013-01-14 07:51:00
3:10 AM,39.2,37.4,93,30.06,10.0,WNW,9.2,-,0.00,,Light Drizzle,300,2013-01-14 08:10:00
3:36 AM,39.2,37.4,93,30.08,10.0,WNW,11.5,-,0.00,,Light Drizzle,300,2013-01-14 08:36:00
3:51 AM,39.9,37.0,89,30.11,10.0,WNW,10.4,-,0.00,,Overcast,300,2013-01-14 08:51:00
4:51 AM,39.9,36.0,86,30.12,10.0,WNW,10.4,-,N/A,,Overcast,300,2013-01-14 09:51:00
5:51 AM,39.0,33.1,79,30.17,10.0,NW,17.3,-,N/A,,Overcast,310,2013-01-14 10:51:00
6:51 AM,37.9,33.1,83,30.22,10.0,NW,9.2,-,N/A,,Overcast,310,2013-01-14 11:51:00
7:51 AM,36.0,28.9,76,30.26,10.0,WNW,9.2,-,N/A,,Overcast,300,2013-01-14 12:51:00
9:51 AM,36.0,27.0,70,30.34,10.0,WNW,11.5,-,N/A,,Mostly Cloudy,290,2013-01-14 14:51:00
10:51 AM,37.0,26.1,65,30.33,10.0,NNW,10.4,-,N/A,,Mostly Cloudy,330,2013-01-14 15:51:00
11:33 AM,37.4,26.6,65,30.28,10.0,NNW,10.4,-,N/A,,Scattered Clouds,340,2013-01-14 16:33:00
11:51 AM,37.0,25.0,62,30.32,10.0,WNW,6.9,-,N/A,,Scattered Clouds,300,2013-01-14 16:51:00
12:51 PM,37.9,26.1,62,30.30,10.0,North,6.9,-,N/A,,Overcast,350,2013-01-14 17:51:00
1:51 PM,37.9,26.1,62,30.29,10.0,North,8.1,-,N/A,,Overcast,10,2013-01-14 18:51:00
2:51 PM,37.0,24.1,59,30.31,10.0,NNW,10.4,-,N/A,,Overcast,330,2013-01-14 19:51:00
3:51 PM,37.0,23.0,57,30.32,10.0,NNW,9.2,-,N/A,,Overcast,340,2013-01-14 20:51:00
4:51 PM,35.1,23.0,61,30.34,10.0,North,10.4,-,N/A,,Overcast,350,2013-01-14 21:51:00
5:51 PM,33.1,21.9,64,30.40,10.0,NNW,12.7,-,N/A,,Overcast,330,2013-01-14 22:51:00
6:51 PM,32.0,21.0,64,30.41,10.0,NNW,9.2,-,N/A,,Overcast,330,2013-01-14 23:51:00
7:51 PM,30.9,21.0,67,30.40,10.0,North,6.9,-,N/A,,Overcast,350,2013-01-15 00:51:00
8:51 PM,30.9,21.0,67,30.39,10.0,North,4.6,-,N/A,,Overcast,10,2013-01-15 01:51:00
9:51 PM,30.0,21.0,69,30.37,10.0,North,9.2,-,N/A,,Overcast,360,2013-01-15 02:51:00
10:51 PM,30.0,21.0,69,30.35,10.0,NE,3.5,-,N/A,,Overcast,40,2013-01-15 03:51:00
11:51 PM,30.0,21.0,69,30.34,10.0,North,5.8,-,N/A,,Overcast,10,2013-01-15 04:51:00